GSAT0102 (PRN E12)

Last updated on Nov. 17, 2019, 4:20 a.m. UTC

1 37847U 11060B   19319.18772824 -.00000058  00000-0  00000+0 0  9992
2 37847  56.4873  47.2143 0003742 289.2407  70.9554  1.70475527 50231
UTC
Height (km)
Latitude
Longitude
Inclination
Orbital Period
UTC large
Height (km)
Speed (km/s)
/
Latitude / Longitude
Inclination (degrees)
Orbital Period (minutes)
Azimuth
Elevation
Range (km)
Doppler Factor
iOS Compass Heading
iOS Angle

Next 30 passes for location: Hong Kong

Rise time Rise Azimuth (degrees) Set time Set Azimuth (degrees) Duration Max altitude (degrees)

No matching passes for this satellites